KC0VVH Weather Reports


time (UTC)temp
F
wind
direction
speed
knots
gust
knots
rain 1hr
in
rain 24hr
in
rain mn
in
humidity
%
barometer
mb
20220812000904 96 48 1.7 4.3 0.00 0.00 0.00 18
20220812000004 96 48 1.7 5.2 0.00 0.00 0.00 18
20220811235425 97 49 3.5 7.0 0.00 0.00 0.00 18
20220811234503 98 214 1.7 5.2 0.00 0.00 0.00 17
20220811233603 100 218 1.7 7.0 0.00 0.00 0.00 16
20220811232746 100 277 2.6 7.0 0.00 0.00 0.00 16
20220811231824 100 255 1.7 7.0 0.00 0.00 0.00 18
20220811230946 99 189 2.6 7.0 0.00 0.00 0.00 19
20220811230003 99 241 2.6 6.1 0.00 0.00 0.00 19
20220811225403 99 232 2.6 6.1 0.00 0.00 0.00 20
20220811224546 98 224 2.6 9.6 0.00 0.00 0.00 20
20220811223604 97 55 0.9 4.3 0.00 0.00 0.00 20
20220811222724 96 55 2.6 5.2 0.00 0.00 0.00 21
20220811221804 96 55 1.7 4.3 0.00 0.00 0.00 21
20220811220924 96 55 1.7 4.3 0.00 0.00 0.00 20
20220811220003 96 55 1.7 6.1 0.00 0.00 0.00 20
20220811215403 96 55 1.7 5.2 0.00 0.00 0.00 20
20220811214503 96 56 2.6 5.2 0.00 0.00 0.00 20
20220811213604 97 52 3.5 9.6 0.00 0.00 0.00 20
20220811212745 97 39 3.5 9.6 0.00 0.00 0.00 20
20220811211803 96 66 2.6 7.0 0.00 0.00 0.00 20
20220811210904 97 67 2.6 7.0 0.00 0.00 0.00 20
20220811210003 96 66 4.3 7.8 0.00 0.00 0.00 20
20220811205404 96 48 3.5 7.8 0.00 0.00 0.00 21
20220811204503 96 37 2.6 8.7 0.00 0.00 0.00 21
20220811203604 96 46 2.6 6.1 0.00 0.00 0.00 21
20220811202704 96 40 3.5 9.6 0.00 0.00 0.00 21
20220811200924 95 27 3.5 7.8 0.00 0.00 0.00 22
20220811200003 95 39 2.6 6.1 0.00 0.00 0.00 22
20220811195425 95 31 2.6 7.0 0.00 0.00 0.00 23
20220811194524 96 33 2.6 7.0 0.00 0.00 0.00 22
20220811193624 95 32 3.5 7.8 0.00 0.00 0.00 22
20220811192704 95 19 2.6 7.0 0.00 0.00 0.00 23
20220811191804 95 37 2.6 7.0 0.00 0.00 0.00 22
20220811190924 94 53 1.7 5.2 0.00 0.00 0.00 23
20220811190004 94 34 2.6 7.0 0.00 0.00 0.00 24
20220811185404 93 10 1.7 7.0 0.00 0.00 0.00 25
20220811184504 93 317 1.7 5.2 0.00 0.00 0.00 25
20220811183645 93 8 2.6 5.2 0.00 0.00 0.00 24
20220811182703 92 132 1.7 7.8 0.00 0.00 0.00 24
20220811181803 93 137 1.7 7.8 0.00 0.00 0.00 25
20220811180903 92 80 1.7 7.8 0.00 0.00 0.00 26
20220811180024 92 179 1.7 5.2 0.00 0.00 0.00 26
20220811175445 91 188 1.7 7.8 0.00 0.00 0.00 27
20220811174525 90 191 2.6 7.0 0.00 0.00 0.00 28
20220811172724 90 82 1.7 4.3 0.00 0.00 0.00 28
20220811171803 89 82 1.7 3.5 0.00 0.00 0.00 29
20220811170903 89 82 0.9 3.5 0.00 0.00 0.00 29
20220811170004 88 86 2.6 6.1 0.00 0.00 0.00 31
20220811165446 88 82 2.6 8.7 0.00 0.00 0.00 31
20220811164546 88 66 1.7 7.0 0.00 0.00 0.00 31
20220811163604 87 75 2.6 6.1 0.00 0.00 0.00 31
20220811162704 86 78 1.7 6.1 0.00 0.00 0.00 31
20220811161803 86 107 2.6 6.1 0.00 0.00 0.00 32
20220811160924 86 73 1.7 4.3 0.00 0.00 0.00 32
20220811160003 86 55 2.6 4.3 0.00 0.00 0.00 32
20220811155425 85 43 2.6 5.2 0.00 0.00 0.00 32
20220811154504 85 51 2.6 5.2 0.00 0.00 0.00 34
20220811153624 84 71 3.5 7.0 0.00 0.00 0.00 34
20220811152704 84 76 3.5 7.0 0.00 0.00 0.00 35
20220811151824 84 71 2.6 7.8 0.00 0.00 0.00 34
20220811150903 83 110 1.7 7.0 0.00 0.00 0.00 39
20220811150024 82 204 0.9 3.5 0.00 0.00 0.00 40
20220811145404 82 208 0.9 3.5 0.00 0.00 0.00 43
20220811144524 82 209 0.9 2.6 0.00 0.00 0.00 44
20220811143625 81 206 1.7 3.5 0.00 0.00 0.00 44
20220811142724 82 210 0.9 4.3 0.00 0.00 0.00 41
20220811141803 82 212 0.9 2.6 0.00 0.00 0.00 41
20220811140903 82 213 0.9 2.6 0.00 0.00 0.00 39
20220811140004 82 213 0.9 2.6 0.00 0.00 0.00 38
20220811135403 83 213 0.0 2.6 0.00 0.00 0.00 40
20220811134546 82 0 0.0 0.0 0.00 0.00 0.00 36
20220811133627 81 213 0.0 0.9 0.00 0.00 0.00 37
20220811132724 79 213 0.0 2.6 0.00 0.00 0.00 39
20220811131825 78 210 0.9 2.6 0.00 0.00 0.00 40
20220811130903 76 160 0.9 2.6 0.00 0.00 0.00 42
20220811130024 75 161 0.9 4.3 0.00 0.00 0.00 43
20220811125446 74 161 0.9 4.3 0.00 0.00 0.00 44
20220811124503 74 161 0.0 3.5 0.00 0.00 0.00 45
20220811123624 74 161 0.0 3.5 0.00 0.00 0.00 47
20220811122703 73 161 0.0 0.9 0.00 0.00 0.00 48
20220811121803 73 161 0.0 0.9 0.00 0.00 0.00 49
20220811120924 73 0 0.0 0.0 0.00 0.00 0.00 49
20220811120045 73 161 0.0 0.9 0.00 0.00 0.00 50
20220811115445 73 161 0.0 1.7 0.00 0.00 0.00 52
20220811114524 73 161 0.9 3.5 0.00 0.00 0.00 53
20220811113645 74 162 0.9 3.5 0.00 0.00 0.00 51
20220811112724 75 162 0.9 4.3 0.00 0.00 0.00 48
20220811111803 75 162 0.9 5.2 0.00 0.00 0.00 49
20220811110925 75 164 0.0 0.9 0.00 0.00 0.00 47
20220811110003 75 164 0.0 1.7 0.00 0.00 0.00 47
20220811105404 76 164 0.0 1.7 0.00 0.00 0.00 46
20220811104504 76 164 0.0 3.5 0.00 0.00 0.00 46
20220811103603 76 164 0.9 3.5 0.00 0.00 0.00 46
20220811102703 77 164 0.0 0.9 0.00 0.00 0.00 44
20220811101804 78 164 0.9 4.3 0.00 0.00 0.00 43
20220811100945 78 164 2.6 5.2 0.00 0.00 0.00 44
20220811100003 79 185 2.6 9.6 0.00 0.00 0.00 42
20220811095404 79 278 1.7 5.2 0.00 0.00 0.00 40
20220811094545 79 328 1.7 5.2 0.00 0.00 0.00 35
20220811093604 79 308 0.9 4.3 0.00 0.00 0.00 36
20220811092745 79 327 2.6 7.0 0.00 0.00 0.00 36
20220811091845 79 331 1.7 7.8 0.00 0.00 0.00 37
20220811090903 81 319 1.7 5.2 0.00 0.00 0.00 35
20220811090045 80 318 0.9 5.2 0.00 0.00 0.00 34
20220811084503 81 317 0.9 3.5 0.00 0.00 0.00 36
20220811083645 82 317 0.9 4.3 0.00 0.00 0.00 34
20220811082703 82 341 3.5 7.8 0.00 0.00 0.00 33
20220811081847 83 320 0.9 7.8 0.00 0.00 0.00 33
20220811080903 83 301 1.7 7.0 0.00 0.00 0.00 32
20220811080004 84 14 1.7 4.3 0.00 0.00 0.00 31
20220811075403 84 83 0.9 3.5 0.00 0.00 0.00 31
20220811074524 84 89 0.9 2.6 0.00 0.00 0.00 30
20220811073603 86 159 1.7 5.2 0.00 0.00 0.00 29
20220811072704 87 216 0.9 7.0 0.00 0.00 0.00 26
20220811071824 87 222 1.7 7.0 0.00 0.00 0.00 26
20220811070924 87 183 2.6 7.0 0.00 0.00 0.00 27
20220811070024 87 216 4.3 11.3 0.00 0.00 0.00 27
20220811065425 87 231 5.2 11.3 0.00 0.00 0.00 27
20220811064525 87 190 5.2 11.3 0.00 0.00 0.00 27
20220811063604 86 180 4.3 12.2 0.00 0.00 0.00 27
20220811062704 86 210 3.5 11.3 0.00 0.00 0.00 28
20220811061803 84 251 1.7 7.8 0.00 0.00 0.00 28
20220811060903 84 255 0.9 2.6 0.00 0.00 0.00 29
20220811060025 84 255 0.0 1.7 0.00 0.00 0.00 29
20220811055404 84 255 0.0 1.7 0.00 0.00 0.00 28
20220811054525 84 255 0.0 2.6 0.00 0.00 0.00 28
20220811053646 84 255 0.9 2.6 0.00 0.00 0.00 29
20220811052704 84 255 0.0 0.9 0.00 0.00 0.00 30
20220811051846 85 0 0.0 0.0 0.00 0.00 0.00 29
20220811050004 86 255 0.0 2.6 0.00 0.00 0.00 27
20220811045403 87 255 0.0 2.6 0.00 0.00 0.00 28
20220811044524 88 255 0.9 2.6 0.00 0.00 0.00 25
20220811043645 88 256 0.9 4.3 0.00 0.00 0.00 24
20220811042703 88 267 0.9 3.5 0.00 0.00 0.00 24
20220811041824 88 270 0.9 5.2 0.00 0.00 0.00 23
20220811040946 88 271 0.9 3.5 0.00 0.00 0.00 23
20220811040005 89 271 0.9 5.2 0.00 0.00 0.00 23
20220811035405 89 272 1.7 6.1 0.00 0.00 0.00 24
20220811034506 89 275 0.9 6.1 0.00 0.00 0.00 24
20220811033648 89 218 1.7 10.4 0.00 0.00 0.00 24
20220811032726 89 200 1.7 7.8 0.00 0.00 0.00 24
20220811031826 90 223 1.7 7.8 0.00 0.00 0.00 25
20220811030905 90 233 1.7 6.1 0.00 0.00 0.00 24
20220811030005 91 239 1.7 7.8 0.00 0.00 0.00 23
20220811025405 91 232 1.7 7.8 0.00 0.00 0.00 24
20220811024527 91 232 1.7 6.1 0.00 0.00 0.00 23
20220811023626 92 237 2.6 9.6 0.00 0.00 0.00 23
20220811022705 92 244 1.7 5.2 0.00 0.00 0.00 22
20220811021827 92 249 1.7 7.8 0.00 0.00 0.00 22
20220811020905 92 259 0.9 2.6 0.00 0.00 0.00 22
20220811020005 93 239 1.7 5.2 0.00 0.00 0.00 22
20220811015448 93 232 1.7 4.3 0.00 0.00 0.00 22
20220811014526 94 237 0.9 3.5 0.00 0.00 0.00 21
20220811013605 94 225 0.9 4.3 0.00 0.00 0.00 21
20220811012706 94 222 0.9 5.2 0.00 0.00 0.00 21
20220811011806 95 222 0.9 4.3 0.00 0.00 0.00 21
20220811010947 95 220 1.7 7.8 0.00 0.00 0.00 21
20220811010047 95 250 2.6 10.4 0.00 0.00 0.00 21
20220811005426 96 238 2.6 10.4 0.00 0.00 0.00 20
20220811004505 96 214 1.7 7.8 0.00 0.00 0.00 20
20220811003605 96 211 3.5 10.4 0.00 0.00 0.00 20
20220811002726 96 306 4.3 10.4 0.00 0.00 0.00 20
20220811001805 98 32 2.6 8.7 0.00 0.00 0.00 19